Regional Weather Roundup
Issued by NWS Portland, ME

Current Version | Previous Version | Text Only | Print | Product List | Glossary Off
Versions: 1 2 3 4 5 6 7 8 9 10 11 12 13 14 15 16 17 18 19 20 21 22 23 24 25 26 27 28 29 30 31 32 33 34 35 36 37 38 39 40 41 42 43 44 45 46 47 48 49 50
000 ASUS41 KGYX 180010 RWRGYX WEATHER ROUNDUP FOR MAINE AND NEW HAMPSHIRE NATIONAL WEATHER SERVICE GRAY ME 800 PM EDT TUE OCT 17 2017 MEZ002-005-006-010-012-015-018-020-021-024-026-027-029-180100- MAINE CITY SKY/WX TMP DP RH WIND PRES REMARKS PORTLAND CLEAR 49 36 61 SW7G20 30.18R 6HR MIN TEMP: 49; 6HR MAX TEMP: 56; SANFORD CLEAR 42 34 73 S3 30.19R BAR HARBOR CLEAR 47 38 71 SW8 30.17S WISCASSET CLEAR 42 37 82 CALM 30.19R 6HR MIN TEMP: 42; 6HR MAX TEMP: 55; ROCKLAND CLEAR 47 38 71 SW6 30.17S FRYEBURG CLEAR 39 37 92 CALM 30.15S 6HR MIN TEMP: 39; 6HR MAX TEMP: 57; LEWISTONAUBURN CLEAR 44 33 65 S8 30.15S AUGUSTA CLEAR 46 36 68 S5 30.15S 6HR MIN TEMP: 46; 6HR MAX TEMP: 54; WATERVILLE CLEAR 45 35 68 VRB3 30.11S BANGOR CLEAR 46 36 68 S7 30.14S 6HR MIN TEMP: 46; 6HR MAX TEMP: 55; GREENVILLE N/A 40 31 70 CALM 30.04F 6HR MIN TEMP: 40; 6HR MAX TEMP: 50; MILLINOCKET PTCLDY 46 31 55 VRB3 30.10S 6HR MIN TEMP: 45; 6HR MAX TEMP: 53; HOULTON CLEAR 43 31 62 S6 30.06S 6HR MIN TEMP: 43; 6HR MAX TEMP: 51; PRESQUE ISLE CLOUDY 47 32 56 S9 30.03F 6HR MIN TEMP: 46; 6HR MAX TEMP: 51; FRENCHVILLE CLOUDY 43 30 60 S7 29.97F 6HR MIN TEMP: 42; 6HR MAX TEMP: 46; CARIBOU CLOUDY 47 32 56 S8 30.00F 6HR MIN TEMP: 47; 6HR MAX TEMP: 51; $$ NHZ002-005-008-009-011-012-014-180100- NEW HAMPSHIRE CITY SKY/WX TMP DP RH WIND PRES REMARKS PORTSMOUTH CLEAR 46 32 59 S5 30.19R ROCHESTER CLEAR 46 33 60 CALM 30.18R 6HR MIN TEMP: 46; 6HR MAX TEMP: 57; NASHUA CLEAR 46 35 65 CALM 30.22R MANCHESTER CLEAR 50 32 50 S6 30.19R 6HR MIN TEMP: 50; 6HR MAX TEMP: 58; CONCORD CLEAR 44 33 65 S5 30.19R 6HR MIN TEMP: 44; 6HR MAX TEMP: 59; LACONIA CLEAR 45 33 63 SW7 30.17R PLYMOUTH FAIR 38 36 90 CALM 30.16S BERLIN CLEAR 35 31 85 CALM 30.10F 6HR MIN TEMP: 34; 6HR MAX TEMP: 54; WHITEFIELD CLEAR 36 31 82 CALM 30.12S 6HR MIN TEMP: 35; 6HR MAX TEMP: 53; JAFFREY CLEAR 44 35 70 CALM 30.20R 6HR MIN TEMP: 44; 6HR MAX TEMP: 55; KEENE CLEAR 40 34 79 CALM 30.21R LEBANON CLEAR 44 30 57 S10 30.15F 6HR MIN TEMP: 44; 6HR MAX TEMP: 59; MT WASHINGTON PTCLDY 27 18 69 W36 N/A WCI 9 6HR MIN TEMP: 24; 6HR MAX TEMP: 27; $$ VTZ005-007-008-180100- VERMONT CITY SKY/WX TMP DP RH WIND PRES REMARKS ST JOHNSBURY N/A 49 30 48 MISG 30.10S MONTPELIER CLEAR 44 30 57 S5 30.15S BURLINGTON CLOUDY 52 30 43 S16G23 30.08F $$ MAZ007-012-024-CTZ003-RIZ002-NYZ038-NYZ072-180100- SOUTHERN NEW ENGLAND AND NY CITY SKY/WX TMP DP RH WIND PRES REMARKS BOSTON CLEAR 51 37 58 SW14 30.23R WORCESTER CLEAR 42 29 59 SW8 30.21S NANTUCKET CLEAR 41 37 86 CALM 30.27R PROVIDENCE CLEAR 48 38 68 SW9 30.26S HARTFORD CLEAR 50 35 56 S9 30.23S ALBANY CLEAR 50 34 54 S5 30.21R NEW YORK CITY CLEAR 56 39 53 S9 30.27R $$ ANZ081-ANZ082-ANZ150-NHZ014-MEZ023>029-180100- COASTAL MARINE OBSERVATIONS STATION/POSITION TIME TEMP WIND PRES WAVE AIR SEA DIR/SP/G HT/PER (UTC) (F) (DEG/KT/KT) (MB) (FT/S) MOUNT DESERT ROC 0000 51 210/ 16/ 17 1022.1F MATINICUS ROCK 2300 50 230/ 17/ 19 1021.9R ISLE OF SHOALS 2300 55 210/ 16/ 17 1022.1S JEFFREYS LEDGE 2336 59 N/A 3/ 6 GEORGES BANK BUO 2250 52 62 1022.5 7/ 8 $$ .............KEY.............. WCI - WIND CHILL TC - TEMPERATURE IN CELSIUS VSB - VISIBILITY IN MILES HX - HEAT INDEX FAIR- INDICATES FEW OR NO CLOUDS BELOW 12,000 FT, WITH NO SIGNIFICANT WEATHER AND/OR OBSTRUCTIONS TO VISIBILITY.

USA.gov is the U.S. government's official web portal to all federal, state and local government web resources and services.